Location: Larrial
(48.2758°N, 4.5331°W)
Time: 22:09:58
(UTC+00:00)

AAUSAT CUBESAT 2 - Pass Details

Date: 01 December 2021
Orbit: 571 x 586 km, 97.5° (Epoch: 19 January)

Event Time Altitude Azimuth Distance (km) Brightness Sun altitude
Rises 06:47:34 0° 359° (N) 2,796 ? -9.8°
Reaches altitude 10° 06:50:13 10° 342° (NNW) 1,894 ? -9.3°
Maximum altitude 06:53:05 19° 297° (WNW) 1,416 ? -8.9°
Drops below altitude 10° 06:55:56 10° 253° (WSW) 1,890 ? -8.5°
Sets 06:58:35 0° 235° (SW) 2,787 ? -8.1°
